1498330800.82,36634,23.81,74216.8,6.07,-30.11,-30.83,0,*73
1498330802.06,36635,23.81,74218.5,6.07,-30.27,-31.11,0,*7D
1498330803.27,36636,23.81,74214.3,6.07,-30.27,-31.01,0,*7F
1498330804.5,36637,23.81,74218.8,6.07,-30.23,-30.95,0,*76
1498330805.73,36638,23.81,74218.8,6.09,-30.23,-31.01,0,*7B
1498330806.97,36639,23.81,74218.8,6.09,-30.11,-30.83,0,*70
1498330808.23,36640,23.81,74216.0,6.09,-30.11,-30.95,0,*79
1498330809.48,36641,23.81,74218.8,6.09,-30.11,-30.95,0,*78
1498330810.72,36642,23.81,74220.5,6.09,-30.11,-31.17,0,*70
1498330811.98,36643,23.81,74220.0,6.09,-30.23,-31.11,0,*76
1498330813.21,36644,23.81,74222.5,6.09,-30.45,-31.29,0,*7A
1498330814.45,36645,23.81,74222.8,6.09,-30.55,-31.33,0,*71
1498330815.69,36646,23.81,74226.8,6.07,-30.67,-31.61,0,*7A
1498330816.95,36647,23.81,74226.3,6.07,-30.61,-31.61,0,*7D
1498330818.15,36648,23.81,74224.5,6.07,-30.45,-31.33,0,*73
1498330819.36,36649,23.81,74216.8,6.07,-30.45,-31.45,0,*73
1498330820.62,36650,23.81,74208.8,6.07,-30.55,-31.51,0,*7F
1498330821.87,36651,23.81,74216.5,6.05,-30.83,-31.73,0,*77
1498330823.15,36652,23.81,74222.5,6.05,-30.51,-31.39,0,*75
1498330824.4,36653,23.81,74226.8,6.07,-30.51,-31.51,0,*78
1498330825.66,36654,23.81,74230.5,6.07,-30.61,-31.51,0,*7C
1498330826.89,36655,23.81,74224.0,6.07,-30.77,-31.79,0,*70
1498330828.15,36656,23.81,74224.3,6.05,-30.83,-31.85,0,*79
1498330829.43,36657,23.81,74224.5,6.05,-30.73,-31.73,0,*7E
1498330830.69,36658,23.81,74222.3,6.07,-30.77,-31.61,0,*74
1498330831.95,36659,23.81,74220.0,6.07,-30.77,-31.51,0,*76
1498330833.2,36660,23.81,74222.3,6.05,-30.67,-31.57,0,*79
1498330834.46,36661,23.81,74222.8,6.03,-30.77,-31.61,0,*7A
1498330835.72,36662,23.81,74224.5,6.03,-31.23,-31.95,0,*72
1498330836.96,36663,23.81,74226.0,6.03,-31.29,-32.19,0,*7E
1498330838.22,36664,23.81,74224.3,6.03,-31.23,-31.95,0,*74
1498330839.46,36665,23.81,74226.5,6.03,-31.05,-31.95,0,*71
1498330840.71,36666,23.81,74226.5,6.03,-31.39,-32.19,0,*7A
1498330842.0,36667,23.81,74226.5,6.01,-31.23,-32.19,0,*72
1498330843.25,36668,23.81,74226.0,6.01,-31.05,-31.95,0,*7E
1498330844.48,36669,23.81,74220.0,6.01,-31.05,-31.79,0,*7D
1498330845.76,36670,23.81,74218.5,6.01,-30.77,-31.57,0,*7D
1498330847.01,36671,23.81,74216.3,6.01,-30.67,-31.39,0,*75
1498330848.27,36672,23.81,74208.5,6.03,-30.55,-31.39,0,*75
1498330849.52,36673,23.81,74216.0,6.01,-30.67,-31.61,0,*7A
1498330850.75,36674,23.81,74216.5,6.03,-30.55,-31.45,0,*78
1498330851.98,36675,23.81,74220.8,6.03,-30.51,-31.29,0,*77
1498330853.24,36676,23.81,74220.3,6.01,-30.55,-31.29,0,*72
1498330854.49,36677,23.81,74220.8,6.03,-30.55,-31.39,0,*70
1498330855.72,36678,23.81,74222.5,6.03,-30.67,-31.39,0,*7E
1498330856.95,36679,23.81,74222.8,6.03,-30.67,-31.57,0,*77
1498330858.21,36680,23.81,74226.5,6.03,-30.73,-31.61,0,*71
1498330859.47,36681,23.81,74222.5,6.05,-30.67,-31.39,0,*7E
1498330860.72,36682,23.81,74220.8,6.03,-30.89,-31.61,0,*76
1498330861.96,36683,23.81,74224.8,6.03,-30.95,-31.79,0,*73
1498330863.19,36684,23.81,74222.3,6.03,-30.89,-31.79,0,*79
1498330864.42,36685,23.81,74226.3,6.03,-31.29,-32.19,0,*76
1498330865.71,36686,23.81,74224.8,6.05,-31.23,-32.07,0,*76
1498330866.96,36687,23.81,74226.0,6.05,-31.39,-32.23,0,*7A
1498330868.22,36688,23.81,74228.3,6.01,-31.29,-32.19,0,*79
1498330869.48,36689,23.81,74224.3,6.03,-31.57,-32.29,0,*70
1498330870.68,36690,23.81,74224.8,6.03,-31.33,-32.13,0,*73
1498330871.91,36691,23.81,74224.0,6.01,-31.29,-32.13,0,*7B
1498330873.16,36692,23.81,74224.5,6.03,-30.89,-31.73,0,*74
1498330874.45,36693,23.81,74224.0,6.01,-31.23,-32.19,0,*79
1498330875.71,36694,23.81,74224.0,6.01,-31.11,-32.01,0,*76
1498330876.94,36695,23.81,74228.8,6.01,-31.29,-32.13,0,*7F
1498330878.17,36696,23.81,74226.5,6.03,-31.29,-32.19,0,*74
1498330879.43,36697,23.81,74226.5,6.01,-31.29,-32.19,0,*77
1498330880.67,36698,23.81,74230.0,6.03,-31.57,-32.35,0,*7D
1498330881.9,36699,23.81,74232.5,6.01,-31.45,-32.13,0,*79
1498330883.16,36700,23.81,74230.3,6.01,-31.29,-31.95,0,*7F
1498330884.41,36701,23.81,74230.5,6.01,-31.39,-32.13,0,*72
1498330885.69,36702,23.81,74232.0,6.01,-31.61,-32.29,0,*75
1498330886.95,36703,23.81,74230.8,6.01,-31.45,-32.19,0,*71
1498330888.18,36704,23.81,74228.0,6.01,-31.45,-32.13,0,*7C
1498330889.39,36705,23.81,74230.3,5.99,-31.33,-32.01,0,*7D
1498330890.59,36706,23.81,74226.5,5.99,-31.29,-32.01,0,*75
1498330891.85,36707,23.81,74224.3,5.99,-31.11,-31.95,0,*71
1498330893.14,36708,23.81,74222.5,6.01,-30.89,-31.61,0,*77
1498330894.42,36709,23.75,74220.8,5.97,-30.95,-31.61,0,*77
1498330895.67,36710,23.75,74214.0,6.01,-31.05,-31.73,0,*78
1498330896.92,36711,23.81,74218.3,6.03,-30.73,-31.39,0,*75
1498330898.18,36712,23.81,74220.3,6.01,-30.67,-31.39,0,*71
1498330899.44,36713,23.75,74216.8,6.03,-30.73,-31.39,0,*77
1498330900.68,36714,23.81,74218.5,6.03,-30.77,-31.45,0,*7F
1498330901.95,36715,23.81,74218.5,6.01,-30.95,-31.57,0,*73
1498330903.21,36716,23.81,74216.5,6.05,-30.83,-31.51,0,*75
1498330904.49,36717,23.81,74210.8,6.05,-30.61,-31.23,0,*7D
1498330905.72,36718,23.81,74212.3,6.07,-30.61,-31.33,0,*71
1498330907.01,36719,23.81,74218.5,6.05,-30.89,-31.51,0,*70
1498330908.25,36720,23.81,74220.0,6.05,-31.01,-31.57,0,*7D
1498330909.5,36721,23.81,74218.8,6.05,-31.01,-31.57,0,*7C
1498330910.75,36722,23.81,74218.8,6.05,-31.33,-31.91,0,*74
1498330912.03,36723,23.81,74218.5,6.05,-31.23,-31.73,0,*78
1498330913.29,36724,23.81,74216.8,6.05,-31.33,-31.85,0,*77
1498330914.52,36725,23.81,74222.3,6.07,-31.33,-31.91,0,*71
1498330915.8,36726,23.81,74218.5,6.05,-31.39,-31.85,0,*7F
1498330917.08,36727,23.81,74218.3,6.05,-31.51,-31.91,0,*75
1498330918.31,36728,23.81,74216.3,6.07,-31.45,-31.91,0,*7D
1498330919.56,36729,23.81,74214.0,6.05,-31.51,-32.13,0,*72
1498330920.79,36730,23.75,74214.3,6.05,-31.67,-32.23,0,*7C
1498330922.05,36731,23.81,74226.0,6.05,-31.33,-31.91,0,*76
1498330923.33,36732,23.75,74222.3,6.05,-31.39,-31.95,0,*7B
1498330924.61,36733,23.81,74220.8,6.05,-31.23,-31.91,0,*75
1498330925.82,36734,23.81,74226.3,6.07,-31.45,-32.01,0,*7A
1498330927.08,36735,23.81,74224.5,6.05,-31.33,-31.95,0,*76
1498330928.29,36736,23.81,74224.3,6.03,-31.45,-32.13,0,*7F
1498330929.55,36737,23.81,74224.8,6.03,-31.57,-32.19,0,*77
1498330930.81,36738,23.81,74224.5,6.01,-31.61,-32.13,0,*75
1498330932.02,36739,23.75,74224.0,6.03,-31.45,-32.01,0,*73
1498330933.28,36740,23.81,74226.5,6.03,-31.57,-32.19,0,*77
1498330934.54,36741,23.75,74228.0,6.03,-31.39,-31.95,0,*79
1498330935.77,36742,23.75,74226.0,6.03,-31.29,-31.95,0,*7B
1498330937.06,36743,23.75,74230.0,6.01,-31.39,-31.95,0,*79
1498330938.28,36744,23.81,74228.3,6.03,-31.39,-32.01,0,*72
1498330939.52,36745,23.75,74228.8,6.03,-31.61,-32.13,0,*7D
1498330940.77,36746,23.75,74230.8,6.05,-31.57,-32.13,0,*7D
1498330942.06,36747,23.75,74230.3,6.01,-31.73,-32.19,0,*74
1498330943.31,36748,23.75,74228.5,6.03,-31.39,-31.91,0,*74
1498330944.57,36749,23.81,74230.3,6.01,-31.39,-32.13,0,*7E
1498330945.85,36750,23.75,74228.5,6.01,-31.57,-32.19,0,*74
1498330947.13,36751,23.81,74228.0,6.01,-31.61,-32.29,0,*73
1498330948.42,36752,23.81,74228.3,6.01,-31.57,-32.19,0,*76
1498330949.7,36753,23.81,74224.8,6.01,-31.39,-31.95,0,*78
1498330950.98,36754,23.81,74224.5,6.01,-31.39,-31.95,0,*7F
1498330952.24,36755,23.75,74224.5,6.01,-31.29,-31.91,0,*7B
1498330953.49,36756,23.75,74220.0,6.01,-31.23,-31.79,0,*74
1498330954.74,36757,23.75,74220.5,6.01,-31.39,-32.01,0,*72
1498330955.97,36758,23.81,74224.8,6.01,-31.05,-31.79,0,*7E
1498330957.22,36759,23.75,74222.3,6.01,-31.29,-31.91,0,*77
1498330958.51,36760,23.81,74222.5,6.01,-31.23,-31.95,0,*73
1498330959.8,36761,23.75,74216.5,6.01,-31.23,-31.95,0,*72
1498330961.06,36762,23.81,74222.0,6.01,-31.29,-31.95,0,*7B
1498330962.29,36763,23.75,74218.8,6.03,-31.23,-31.79,0,*70
1498330963.58,36764,23.75,74220.3,6.01,-31.23,-31.95,0,*77
1498330964.87,36765,23.81,74224.8,6.01,-31.23,-31.95,0,*76
1498330966.13,36766,23.75,74222.3,6.01,-31.61,-32.35,0,*7A
1498330967.41,36767,23.81,74224.8,6.01,-31.61,-32.29,0,*76
1498330968.64,36768,23.75,74226.5,6.01,-31.45,-32.13,0,*76
1498330969.9,36769,23.81,74226.5,6.01,-31.11,-31.79,0,*79
1498330971.12,36770,23.75,74226.8,6.01,-31.05,-31.79,0,*74
1498330972.41,36771,23.75,74226.0,6.01,-31.23,-31.91,0,*77
1498330973.64,36772,23.75,74226.8,6.01,-31.45,-32.13,0,*7D
1498330974.9,36773,23.75,74228.8,6.01,-31.45,-32.19,0,*76
1498330976.16,36774,23.75,74230.8,6.01,-31.57,-32.35,0,*7C
1498330977.39,36775,23.81,74232.0,6.01,-31.79,-32.51,0,*73
1498330978.6,36776,23.75,74228.5,5.99,-31.67,-32.35,0,*7F
1498330979.83,36777,23.75,74224.5,5.99,-31.51,-32.23,0,*7C
1498330981.06,36778,23.75,74224.3,5.99,-31.67,-32.19,0,*7F
1498330982.34,36779,23.75,74230.8,5.97,-31.73,-32.29,0,*76
1498330983.55,36780,23.75,74224.5,5.99,-31.79,-32.51,0,*7B
1498330984.81,36781,23.75,74228.3,5.97,-32.13,-32.63,0,*7A
1498330986.05,36782,23.75,74226.8,5.99,-31.95,-32.51,0,*7B
1498330987.29,36783,23.81,74234.3,5.99,-31.95,-32.51,0,*7A
1498330988.53,36784,23.75,74232.3,5.99,-31.85,-32.51,0,*7C
1498330989.73,36785,23.75,74230.5,5.99,-31.67,-32.23,0,*74
1498330990.99,36786,23.75,74230.0,5.97,-31.85,-32.39,0,*7E
1498330992.27,36787,23.75,74226.5,5.97,-31.73,-32.45,0,*7D
1498330993.48,36788,23.75,74228.3,5.99,-31.67,-32.35,0,*7E
1498330994.76,36789,23.75,74228.0,5.97,-31.85,-32.29,0,*70
1498330996.02,36790,23.75,74228.8,5.97,-31.85,-32.39,0,*79
1498330997.28,36791,23.75,74224.0,5.97,-31.73,-32.39,0,*71
1498330998.56,36792,23.75,74224.3,5.97,-31.73,-32.29,0,*73
1498330999.82,36793,23.75,74224.3,5.95,-31.73,-32.29,0,*70
1498331001.08,36794,23.75,74226.8,5.95,-31.57,-32.07,0,*7D
1498331002.37,36795,23.75,74226.0,5.93,-31.61,-32.19,0,*70
1498331003.63,36796,23.75,74230.5,5.95,-31.57,-32.29,0,*73
1498331004.89,36797,23.75,74230.3,5.95,-31.61,-32.07,0,*7B
1498331006.12,36798,23.75,74228.3,5.95,-31.57,-32.23,0,*77
1498331007.38,36799,23.75,74230.5,5.95,-31.23,-31.85,0,*7A
1498331008.62,36800,23.75,74226.8,5.95,-31.33,-31.91,0,*71
1498331009.85,36801,23.75,74224.0,5.95,-31.33,-31.91,0,*70
1498331011.1,36802,23.75,74224.8,5.97,-31.33,-31.85,0,*74
1498331012.38,36803,23.75,74224.8,5.97,-31.39,-31.91,0,*7A
1498331013.61,36804,23.75,74226.0,5.95,-31.57,-32.13,0,*7E
1498331014.88,36805,23.75,74226.8,5.93,-31.45,-31.95,0,*77
1498331016.14,36806,23.75,74226.0,5.93,-31.57,-32.13,0,*7A
1498331017.4,36807,23.75,74224.0,5.95,-31.23,-31.85,0,*72
1498331018.63,36808,23.75,74220.8,5.95,-31.39,-32.01,0,*79
1498331019.85,36809,23.75,74224.3,5.95,-31.33,-31.73,0,*74
1498331021.08,36810,23.75,74226.5,5.95,-31.01,-31.51,0,*7D
1498331022.31,36811,23.75,74228.3,5.95,-31.01,-31.51,0,*7C
1498331023.54,36812,23.75,74230.5,5.95,-31.05,-31.51,0,*7B
1498331024.77,36813,23.75,74228.5,5.95,-31.17,-31.57,0,*7F
1498331026.03,36814,23.75,74224.3,5.95,-30.89,-31.51,0,*78
1498331027.25,36815,23.75,74228.5,5.95,-31.05,-31.57,0,*7A
1498331028.45,36816,23.75,74224.5,5.95,-31.05,-31.67,0,*7A
1498331029.71,36817,23.75,74224.8,5.95,-30.77,-31.39,0,*74
1498331030.92,36818,23.75,74224.3,5.95,-31.17,-31.67,0,*77
1498331032.2,36819,23.75,74222.0,5.97,-31.23,-31.85,0,*7F
1498331033.48,36820,23.75,74220.5,5.97,-31.23,-31.85,0,*75
1498331034.69,36821,23.75,74220.8,5.99,-31.17,-31.79,0,*7E
1498331035.91,36822,23.75,74214.5,5.97,-31.33,-32.01,0,*79
1498331037.12,36823,23.75,74218.0,5.95,-31.17,-31.67,0,*7F
1498331038.34,36824,23.75,74216.5,5.95,-31.01,-31.57,0,*7C
1498331039.59,36825,23.75,74220.5,5.95,-30.89,-31.57,0,*7C
1498331040.84,36826,23.75,74222.5,5.97,-31.01,-31.57,0,*7C
1498331042.12,36827,23.75,74220.0,5.97,-30.77,-31.51,0,*7B
1498331043.35,36828,23.75,74220.3,5.95,-31.17,-31.73,0,*71
1498331044.58,36829,23.75,74222.0,5.95,-31.33,-31.91,0,*7A
1498331045.84,36830,23.75,74220.8,5.93,-31.29,-31.95,0,*7B
1498331047.08,36831,23.75,74216.5,5.95,-31.23,-32.01,0,*78
1498331048.33,36832,23.75,74218.3,5.97,-31.39,-32.01,0,*72
1498331049.56,36833,23.75,74220.0,5.95,-31.33,-31.91,0,*71
1498331050.79,36834,23.75,74222.3,5.95,-31.17,-31.73,0,*7C
1498331052.07,36835,23.75,74222.3,5.93,-31.39,-31.91,0,*7B
1498331053.33,36836,23.75,74218.3,5.93,-31.39,-31.79,0,*7E
1498331054.58,36837,23.75,74226.3,5.93,-31.29,-31.73,0,*74
1498331055.81,36838,23.75,74228.0,5.95,-31.05,-31.57,0,*75
1498331057.09,36839,23.75,74224.8,5.93,-31.23,-31.73,0,*70
1498331058.38,36840,23.75,74224.3,5.93,-31.23,-31.61,0,*7D
1498331059.64,36841,23.75,74230.5,5.93,-31.05,-31.61,0,*78
1498331060.92,36842,23.75,74228.8,5.93,-30.95,-31.57,0,*76
1498331062.2,36843,23.75,74230.5,5.93,-30.95,-31.57,0,*77
1498331063.48,36844,23.75,74230.3,5.93,-31.23,-31.73,0,*7A
1498331064.77,36845,23.75,74226.5,5.93,-31.11,-31.61,0,*79
1498331066.05,36846,23.75,74226.5,5.93,-31.39,-31.91,0,*7F
1498331067.31,36847,23.75,74224.5,5.91,-31.23,-31.91,0,*77
1498331068.55,36848,23.75,74224.3,5.91,-31.45,-32.07,0,*74
1498331069.78,36849,23.75,74222.3,5.91,-31.57,-32.13,0,*73
1498331071.02,36850,23.75,74222.8,5.91,-31.57,-32.13,0,*7B
1498331072.26,36851,23.75,74222.3,5.89,-31.51,-32.13,0,*75
1498331073.52,36852,23.75,74226.3,5.89,-31.61,-32.13,0,*75
1498331074.75,36853,23.75,74226.8,5.89,-31.45,-32.01,0,*71
1498331076.0,36854,23.75,74224.5,5.89,-31.45,-31.85,0,*79
1498331077.23,36855,23.75,74220.8,5.89,-31.33,-32.01,0,*76
1498331078.45,36856,23.75,74220.0,5.89,-31.17,-31.79,0,*7F
1498331079.67,36857,23.75,74224.5,5.89,-31.01,-31.67,0,*76
1498331080.92,36858,23.75,74226.8,5.89,-31.17,-31.85,0,*72
1498331082.19,36859,23.75,74224.8,5.85,-31.39,-32.07,0,*7A
1498331083.43,36860,23.75,74228.3,5.85,-31.05,-31.73,0,*7F
1498331084.68,36861,23.75,74228.3,5.89,-31.11,-31.67,0,*72
1498331085.9,36862,23.75,74230.8,5.89,-31.01,-31.67,0,*70
1498331087.18,36863,23.75,74230.0,5.89,-30.89,-31.61,0,*76
1498331088.46,36864,23.75,74228.3,5.89,-30.95,-31.61,0,*7C
1498331089.68,36865,23.75,74236.5,5.89,-31.17,-31.79,0,*7F
1498331090.94,36866,23.75,74232.8,5.89,-31.29,-31.95,0,*73
1498331092.18,36867,23.75,74234.8,5.85,-31.17,-31.91,0,*77
1498331093.43,36868,23.75,74230.5,5.85,-31.33,-32.19,0,*7D
1498331094.71,36869,23.75,74234.8,5.89,-31.11,-31.85,0,*76
1498331095.95,36870,23.75,74230.0,5.85,-31.17,-31.91,0,*71
1498331097.18,36871,23.75,74234.0,5.83,-30.83,-31.51,0,*76
1498331098.44,36872,23.75,74230.3,5.85,-30.77,-31.39,0,*76
1498331099.68,36873,23.75,74230.8,5.85,-30.83,-31.57,0,*74
1498331100.95,36874,23.75,74230.0,5.85,-31.23,-31.85,0,*77
1498331102.21,36875,23.75,74228.8,5.89,-31.29,-31.95,0,*71
1498331103.43,36876,23.75,74228.8,5.85,-31.33,-32.01,0,*7B
1498331104.67,36877,23.75,74228.8,5.85,-31.33,-31.91,0,*70
1498331105.94,36878,23.75,74234.8,5.85,-31.23,-31.91,0,*7E
1498331107.2,36879,23.75,74234.0,5.85,-30.95,-31.73,0,*7F
1498331108.44,36880,23.75,74232.3,5.85,-31.05,-31.85,0,*78
1498331109.7,36881,23.75,74232.3,5.85,-31.39,-31.91,0,*73
1498331110.93,36882,23.75,74234.5,5.83,-31.17,-31.85,0,*7F
1498331112.2,36883,23.75,74232.5,5.85,-31.23,-31.85,0,*7F
1498331113.41,36884,23.75,74234.3,5.85,-31.33,-32.01,0,*76
1498331114.63,36885,23.75,74234.5,5.83,-31.67,-32.07,0,*76
1498331115.91,36886,23.75,74232.0,5.85,-31.23,-31.91,0,*7F
1498331117.15,36887,23.75,74234.3,5.85,-31.17,-31.85,0,*7C
1498331118.39,36888,23.75,74234.8,5.85,-31.17,-31.85,0,*73
1498331119.6,36889,23.75,74234.0,5.83,-31.05,-31.73,0,*7E
1498331120.84,36890,23.75,74234.3,5.83,-30.95,-31.73,0,*7E
1498331122.06,36891,23.75,74234.0,5.83,-31.05,-31.85,0,*7E
1498331123.29,36892,23.75,74236.8,5.85,-31.01,-31.73,0,*76
1498331124.54,36893,23.75,74234.0,5.85,-31.17,-31.91,0,*7C
1498331125.77,36894,23.75,74234.0,5.85,-31.05,-31.85,0,*7D
1498331126.99,36895,23.75,74232.5,5.83,-31.05,-31.73,0,*73
1498331128.22,36896,23.75,74232.8,5.85,-31.01,-31.73,0,*72
1498331129.44,36897,23.75,74234.3,5.83,-31.05,-31.73,0,*71
1498331130.67,36898,23.75,74234.0,5.85,-31.01,-31.73,0,*7C
1498331131.91,36899,23.75,74236.3,5.85,-31.05,-31.85,0,*70
1498331133.15,36900,23.75,74232.8,5.85,-31.05,-31.91,0,*74
1498331134.36,36901,23.75,74236.0,5.83,-31.39,-32.01,0,*76
1498331135.56,36902,23.75,74232.5,5.83,-31.33,-32.01,0,*7F
1498331136.8,36903,23.75,74230.5,5.85,-31.33,-31.91,0,*72
1498331138.07,36904,23.75,74232.5,5.85,-31.23,-31.91,0,*74
1498331139.34,36905,23.75,74236.3,5.85,-31.23,-31.91,0,*75
1498331140.59,36906,23.75,74232.5,5.85,-31.33,-32.19,0,*74
1498331141.8,36907,23.75,74234.5,5.85,-31.33,-32.01,0,*7C
1498331143.07,36908,23.75,74230.8,5.85,-31.23,-31.85,0,*7D
1498331144.33,36909,23.75,74234.8,5.83,-31.57,-32.19,0,*7F
1498331145.54,36910,23.75,74230.0,5.83,-31.67,-32.29,0,*77
1498331146.8,36911,23.75,74232.3,5.83,-31.23,-31.91,0,*76
1498331148.01,36912,23.75,74230.5,5.83,-31.05,-31.85,0,*74
1498331149.25,36913,23.75,74234.5,5.85,-31.01,-31.73,0,*7E
1498331150.49,36914,23.75,74232.3,5.83,-31.23,-31.73,0,*7F
1498331151.72,36915,23.75,74234.5,5.83,-31.23,-32.01,0,*78
1498331152.96,36916,23.75,74232.3,5.83,-31.39,-31.91,0,*7A
1498331154.16,36917,23.75,74226.5,5.83,-31.33,-32.01,0,*7B
1498331155.43,36918,23.75,74228.5,5.85,-31.23,-31.73,0,*75
1498331156.68,36919,23.75,74232.8,5.83,-31.51,-32.19,0,*78
1498331157.94,36920,23.75,74230.8,5.85,-31.39,-32.19,0,*7A
1498331159.21,36921,23.75,74228.0,5.85,-31.39,-32.07,0,*74
1498331160.45,36922,23.75,74228.8,5.85,-31.05,-31.73,0,*78
1498331161.71,36923,23.75,74224.8,5.85,-30.95,-31.57,0,*77
1498331162.98,36924,23.75,74228.3,5.85,-31.23,-31.91,0,*76
1498331164.22,36925,23.69,74226.3,5.85,-31.01,-31.73,0,*7B
1498331165.45,36926,23.75,74230.5,5.85,-31.17,-31.73,0,*7F
1498331166.69,36927,23.75,74230.5,5.85,-31.05,-31.73,0,*7D
1498331167.93,36928,23.75,74228.0,5.85,-30.83,-31.39,0,*73
1498331169.17,36929,23.75,74228.5,5.85,-31.05,-31.73,0,*73
1498331170.38,36930,23.75,74222.3,5.85,-31.17,-31.67,0,*7D
1498331171.65,36931,23.75,74224.0,5.85,-30.95,-31.51,0,*72
1498331172.89,36932,23.75,74224.3,5.91,-30.73,-31.45,0,*79
1498331174.12,36933,23.75,74224.0,5.91,-30.83,-31.39,0,*7C
1498331175.38,36934,23.75,74222.0,5.89,-30.77,-31.33,0,*73
1498331176.61,36935,23.75,74218.5,5.93,-30.23,-30.67,0,*78
1498331177.9,36936,23.69,74218.5,5.93,-30.73,-31.23,0,*7F
1498331179.16,36937,23.75,74222.3,5.93,-30.67,-30.95,0,*77
1498331180.45,36938,23.75,74220.5,5.93,-30.73,-31.23,0,*71
1498331181.68,36939,23.75,74216.8,5.95,-30.67,-31.11,0,*72
1498331182.92,36940,23.75,74214.0,5.95,-30.83,-31.39,0,*7C
1498331184.16,36941,23.75,74216.3,5.93,-30.83,-31.45,0,*70
1498331185.38,36942,23.75,74214.5,5.95,-30.67,-31.17,0,*78
1498331186.63,36943,23.69,74202.0,5.97,-30.77,-31.17,0,*7A
1498331187.92,36944,23.75,74202.5,5.97,-30.51,-30.89,0,*7F
1498331189.15,36945,23.69,74196.5,5.97,-30.45,-30.83,0,*71
1498331190.39,36946,23.75,74212.0,5.99,-30.23,-30.77,0,*77
1498331191.63,36947,23.75,74214.0,5.99,-30.27,-30.77,0,*72
1498331192.86,36948,23.75,74220.0,5.99,-29.79,-30.39,0,*74
1498331194.12,36949,23.75,74218.8,5.99,-29.73,-30.39,0,*7F
1498331195.37,36950,23.75,74218.5,6.01,-30.51,-31.05,0,*73
1498331196.62,36951,23.69,74218.0,6.01,-30.55,-31.29,0,*78
1498331197.9,36952,23.75,74226.3,6.01,-30.89,-31.61,0,*76
1498331199.12,36953,23.75,74224.0,6.03,-30.67,-31.45,0,*73
1498331200.37,36954,23.69,74232.0,6.01,-30.51,-31.05,0,*77
1498331201.63,36955,23.75,74228.8,6.03,-30.17,-30.73,0,*76
1498331202.88,36956,23.75,74230.5,6.03,-30.39,-30.95,0,*71
1498331204.14,36957,23.69,74224.0,6.03,-30.77,-31.39,0,*7D
1498331205.36,36958,23.75,74226.5,6.05,-31.01,-31.67,0,*7F
1498331206.62,36959,23.69,74222.5,6.05,-31.33,-31.91,0,*76
1498331207.87,36960,23.75,74222.8,6.05,-31.33,-31.85,0,*79
1498331209.12,36961,23.69,74222.5,6.05,-31.51,-32.13,0,*70
1498331210.4,36962,23.69,74222.8,6.05,-31.39,-31.91,0,*74
1498331211.68,36963,23.69,74226.0,6.05,-31.51,-31.95,0,*7F
1498331212.91,36964,23.75,74228.8,6.03,-31.39,-31.79,0,*72
1498331214.14,36965,23.75,74228.5,6.03,-30.77,-31.29,0,*7D
1498331215.42,36966,23.69,74222.8,6.01,-30.77,-31.11,0,*77
1498331216.66,36967,23.75,74226.5,6.03,-30.67,-31.11,0,*75
1498331217.92,36968,23.69,74220.5,6.03,-30.55,-30.89,0,*7B
1498331219.16,36969,23.69,74218.0,6.07,-30.27,-30.61,0,*7D
1498331220.4,36970,23.75,74224.3,6.07,-30.23,-30.61,0,*71
1498331221.64,36971,23.69,74222.8,6.07,-30.45,-30.77,0,*77
1498331222.89,36972,23.69,74226.0,6.07,-30.39,-30.55,0,*7F
1498331224.14,36973,23.69,74224.8,6.09,-30.23,-30.55,0,*7B
1498331225.39,36974,23.75,74228.8,6.13,-30.23,-30.51,0,*73
1498331226.64,36975,23.69,74226.0,6.13,-30.23,-30.73,0,*72
1498331227.9,36976,23.69,74224.5,6.13,-30.23,-30.61,0,*72
1498331229.16,36977,23.75,74224.0,6.13,-30.33,-30.61,0,*72
1498331230.43,36978,23.69,74226.0,6.13,-30.01,-30.51,0,*7F
1498331231.68,36979,23.69,74222.5,6.15,-30.05,-30.55,0,*78
1498331232.93,36980,23.69,74226.5,6.15,-30.39,-30.89,0,*70
1498331234.16,36981,23.69,74222.8,6.15,-29.83,-30.51,0,*7D
1498331235.44,36982,23.69,74218.0,6.17,-30.01,-30.55,0,*7A
1498331236.66,36983,23.69,74218.8,6.15,-30.39,-31.05,0,*76
1498331237.91,36984,23.69,74222.0,6.15,-30.95,-31.57,0,*70
1498331239.15,36985,23.69,74218.0,6.15,-30.89,-31.45,0,*7F
1498331240.36,36986,23.69,74224.0,6.15,-31.05,-31.57,0,*7A
1498331241.63,36987,23.69,74228.8,6.19,-30.95,-31.61,0,*7A
1498331242.88,36988,23.69,74224.5,6.17,-30.73,-31.33,0,*74
1498331244.14,36989,23.69,74222.3,6.17,-30.67,-31.23,0,*71
1498331245.39,36990,23.69,74226.0,6.17,-30.55,-31.17,0,*7F
1498331246.62,36991,23.75,74226.3,6.17,-30.83,-31.33,0,*73
1498331247.85,36992,23.69,74222.0,6.15,-30.89,-31.29,0,*73
1498331249.1,36993,23.69,74226.3,6.17,-31.05,-31.51,0,*7A
1498331250.36,36994,23.69,74226.0,6.15,-31.11,-31.61,0,*79
1498331251.57,36995,23.69,74224.8,6.15,-31.05,-31.45,0,*7B
1498331252.79,36996,23.69,74226.3,6.15,-31.05,-31.61,0,*7E
1498331254.04,36997,23.69,74228.5,6.17,-31.01,-31.57,0,*7C
1498331255.25,36998,23.69,74230.5,6.15,-31.05,-31.45,0,*76
1498331256.47,36999,23.69,74234.3,6.15,-31.29,-31.73,0,*7C
1498331257.72,37000,23.69,74228.3,6.15,-31.39,-31.73,0,*75
1498331258.94,37001,23.69,74230.3,6.15,-31.39,-31.79,0,*7E
1498331260.2,37002,23.69,74228.8,6.15,-31.11,-31.39,0,*73
1498331261.43,37003,23.69,74228.8,6.15,-30.61,-31.05,0,*7B
1498331262.68,37004,23.69,74228.5,6.15,-31.23,-31.57,0,*7C
1498331263.93,37005,23.69,74232.0,6.15,-31.39,-31.73,0,*70
1498331265.15,37006,23.69,74234.0,6.15,-31.29,-31.73,0,*72
1498331266.36,37007,23.69,74232.3,6.15,-31.45,-31.79,0,*73
1498331267.59,37008,23.69,74230.0,6.15,-31.29,-31.61,0,*7F
1498331268.84,37009,23.69,74228.5,6.13,-31.05,-31.39,0,*7B
1498331270.07,37010,23.69,74226.8,6.15,-30.89,-31.29,0,*71
1498331271.31,37011,23.69,74222.8,6.15,-30.55,-30.95,0,*77
1498331272.56,37012,23.69,74228.5,6.15,-30.61,-30.95,0,*73
1498331273.81,37013,23.69,74226.5,6.17,-30.51,-31.01,0,*7F
1498331275.06,37014,23.69,74224.8,6.15,-30.55,-31.11,0,*7F
1498331276.32,37015,23.69,74220.0,6.15,-30.77,-31.23,0,*7F
1498331277.58,37016,23.69,74220.3,6.15,-30.73,-31.23,0,*78
1498331278.83,37017,23.69,74226.3,6.15,-30.61,-31.23,0,*7A
1498331280.09,37018,23.69,74226.8,6.15,-30.89,-31.23,0,*73
1498331281.32,37019,23.69,74230.3,6.17,-30.83,-31.17,0,*7D
1498331282.53,37020,23.69,74232.0,6.15,-31.05,-31.45,0,*7D
1498331283.75,37021,23.69,74230.5,6.15,-31.29,-31.73,0,*77
1498331284.98,37022,23.69,74232.3,6.15,-31.39,-31.79,0,*7F
1498331286.2,37023,23.69,74228.8,6.17,-31.33,-31.67,0,*79
1498331287.44,37024,23.69,74230.3,6.15,-31.23,-31.45,0,*7D
1498331288.67,37025,23.69,74228.8,6.15,-30.95,-31.29,0,*7A
1498331289.93,37026,23.69,74234.5,6.13,-30.73,-31.05,0,*79
1498331291.2,37027,23.69,74234.8,6.13,-30.61,-31.11,0,*7E
1498331292.48,37028,23.69,74230.3,6.13,-30.73,-31.23,0,*73
1498331293.75,37029,23.69,74228.5,6.13,-30.51,-30.95,0,*7E
1498331295.02,37030,23.69,74226.3,6.13,-30.51,-30.95,0,*76
1498331296.28,37031,23.69,74228.5,6.15,-30.73,-31.23,0,*7D
1498331297.55,37032,23.69,74226.3,6.13,-30.51,-30.95,0,*74
1498331298.83,37033,23.69,74224.8,6.13,-30.39,-30.89,0,*76
1498331300.11,37034,23.69,74222.0,6.13,-30.51,-30.89,0,*7F
1498331301.36,37035,23.69,74224.0,6.15,-30.51,-30.95,0,*75
1498331302.61,37036,23.69,74224.8,6.17,-30.51,-31.05,0,*7C
1498331303.83,37037,23.69,74226.3,6.15,-30.51,-31.05,0,*7F
1498331305.06,37038,23.69,74228.0,6.15,-30.55,-31.05,0,*74
1498331306.28,37039,23.69,74224.8,6.15,-30.51,-31.05,0,*71
1498331307.53,37040,23.69,74224.0,6.15,-30.51,-31.23,0,*7B